TimeCST,TemperatureF,Dew PointF,Humidity,Sea Level PressureIn,VisibilityMPH,Wind Direction,Wind SpeedMPH,Gust SpeedMPH,PrecipitationIn,Events,Conditions,WindDirDegrees,DateUTC
12:15 AM,30.2,30.2,100,29.60,2.0,North,17.3,24.2,N/A,Snow,Light Snow,360,2013-02-27 06:15:00
12:35 AM,30.2,30.2,100,29.60,2.5,North,17.3,26.5,N/A,Snow,Light Snow,360,2013-02-27 06:35:00
12:55 AM,30.2,30.2,100,29.60,4.0,North,17.3,23.0,N/A,Snow,Light Snow,360,2013-02-27 06:55:00
1:15 AM,30.2,30.2,100,29.60,4.0,North,17.3,23.0,N/A,Snow,Light Snow,360,2013-02-27 07:15:00
1:35 AM,30.2,30.2,100,29.61,2.5,North,16.1,25.3,N/A,Snow,Light Snow,360,2013-02-27 07:35:00
1:55 AM,30.2,30.2,100,29.61,2.5,North,17.3,23.0,N/A,Snow,Light Snow,360,2013-02-27 07:55:00
2:15 AM,30.2,30.2,100,29.60,2.0,North,16.1,23.0,N/A,Snow,Light Snow,360,2013-02-27 08:15:00
2:35 AM,30.2,30.2,100,29.60,4.0,North,15.0,24.2,N/A,Snow,Light Snow,360,2013-02-27 08:35:00
2:55 AM,30.2,30.2,100,29.59,2.5,North,17.3,26.5,N/A,Snow,Light Snow,360,2013-02-27 08:55:00
3:15 AM,30.2,30.2,100,29.59,2.0,North,15.0,24.2,N/A,Snow,Light Snow,360,2013-02-27 09:15:00
3:35 AM,30.2,30.2,100,29.59,3.0,North,17.3,25.3,N/A,Snow,Light Snow,360,2013-02-27 09:35:00
3:55 AM,30.2,30.2,100,29.59,1.8,North,17.3,25.3,N/A,Snow,Light Snow,360,2013-02-27 09:55:00
4:15 AM,30.2,30.2,100,29.59,1.5,North,17.3,25.3,N/A,Snow,Light Snow,360,2013-02-27 10:15:00
4:35 AM,30.2,30.2,100,29.59,3.0,North,19.6,25.3,N/A,Snow,Light Snow,360,2013-02-27 10:35:00
4:55 AM,30.2,30.2,100,29.59,4.0,North,18.4,24.2,N/A,Snow,Light Snow,350,2013-02-27 10:55:00
5:15 AM,30.2,30.2,100,29.59,5.0,North,19.6,26.5,N/A,Snow,Light Snow,350,2013-02-27 11:15:00
5:35 AM,30.2,30.2,100,29.59,5.0,North,19.6,27.6,N/A,Snow,Light Snow,350,2013-02-27 11:35:00
5:55 AM,30.2,30.2,100,29.60,5.0,North,15.0,25.3,N/A,Snow,Light Snow,350,2013-02-27 11:55:00
6:15 AM,30.2,30.2,100,29.60,3.0,North,17.3,24.2,N/A,Snow,Light Snow,350,2013-02-27 12:15:00
6:35 AM,30.2,28.4,93,29.61,5.0,North,15.0,20.7,N/A,Snow,Light Snow,350,2013-02-27 12:35:00
6:55 AM,30.2,28.4,93,29.61,4.0,North,13.8,-,N/A,Snow,Light Snow,350,2013-02-27 12:55:00
7:15 AM,30.2,30.2,100,29.61,2.0,North,18.4,24.2,N/A,Snow,Light Snow,350,2013-02-27 13:15:00
7:35 AM,30.2,30.2,100,29.62,2.0,North,12.7,19.6,N/A,Snow,Light Snow,350,2013-02-27 13:35:00
7:55 AM,30.2,30.2,100,29.62,3.0,North,16.1,21.9,N/A,Snow,Light Snow,350,2013-02-27 13:55:00
8:15 AM,30.2,30.2,100,29.62,1.5,North,13.8,20.7,N/A,Snow,Light Snow,350,2013-02-27 14:15:00
8:35 AM,30.2,30.2,100,29.63,2.0,North,12.7,20.7,N/A,Snow,Light Snow,360,2013-02-27 14:35:00
8:55 AM,30.2,30.2,100,29.62,2.0,North,15.0,20.7,N/A,Snow,Light Snow,360,2013-02-27 14:55:00
9:15 AM,30.2,30.2,100,29.63,5.0,North,17.3,21.9,N/A,Snow,Light Snow,360,2013-02-27 15:15:00
9:35 AM,30.2,30.2,100,29.62,5.0,North,16.1,21.9,N/A,,Overcast,360,2013-02-27 15:35:00
9:55 AM,32.0,30.2,93,29.62,3.0,North,16.1,23.0,N/A,Snow,Light Snow,360,2013-02-27 15:55:00
10:15 AM,32.0,30.2,93,29.62,4.0,North,12.7,25.3,N/A,Snow,Light Snow,350,2013-02-27 16:15:00
10:35 AM,32.0,30.2,93,29.62,5.0,North,16.1,-,N/A,Snow,Light Snow,350,2013-02-27 16:35:00
10:55 AM,32.0,30.2,93,29.62,7.0,North,12.7,21.9,N/A,Snow,Light Snow,360,2013-02-27 16:55:00
11:15 AM,32.0,30.2,93,29.63,4.0,North,15.0,20.7,N/A,Snow,Light Snow,360,2013-02-27 17:15:00
11:35 AM,32.0,30.2,93,29.63,2.5,North,15.0,21.9,N/A,Snow,Light Snow,350,2013-02-27 17:35:00
11:55 AM,32.0,32.0,100,29.63,3.0,North,13.8,21.9,N/A,Snow,Light Snow,350,2013-02-27 17:55:00
12:15 PM,32.0,32.0,100,29.63,7.0,North,15.0,21.9,N/A,,Overcast,350,2013-02-27 18:15:00
12:55 PM,32.0,32.0,100,29.63,7.0,North,15.0,21.9,N/A,,Overcast,350,2013-02-27 18:55:00
1:15 PM,32.0,32.0,100,29.63,1.5,North,11.5,19.6,N/A,Snow,Light Snow,350,2013-02-27 19:15:00
1:35 PM,32.0,32.0,100,29.63,2.0,North,16.1,20.7,N/A,Snow,Light Snow,350,2013-02-27 19:35:00
2:15 PM,33.8,32.0,93,29.64,7.0,North,12.7,20.7,N/A,Snow,Light Snow,350,2013-02-27 20:15:00
2:35 PM,33.8,32.0,93,29.64,4.0,North,17.3,21.9,N/A,Snow,Light Snow,350,2013-02-27 20:35:00
2:55 PM,33.8,32.0,93,29.64,10.0,North,12.7,20.7,N/A,Snow,Light Snow,350,2013-02-27 20:55:00
3:15 PM,33.8,32.0,93,29.65,10.0,North,15.0,19.6,N/A,,Overcast,350,2013-02-27 21:15:00
3:35 PM,32.0,32.0,100,29.66,7.0,North,13.8,18.4,N/A,Snow,Light Snow,350,2013-02-27 21:35:00
3:55 PM,32.0,32.0,100,29.66,10.0,North,12.7,18.4,N/A,,Overcast,350,2013-02-27 21:55:00
4:15 PM,32.0,32.0,100,29.67,10.0,North,15.0,21.9,N/A,,Overcast,360,2013-02-27 22:15:00
4:35 PM,32.0,32.0,100,29.68,10.0,NNW,11.5,17.3,N/A,Snow,Light Snow,340,2013-02-27 22:35:00
4:55 PM,32.0,32.0,100,29.68,1.8,NNW,9.2,-,N/A,Snow,Light Snow,340,2013-02-27 22:55:00
5:15 PM,32.0,32.0,100,29.69,2.5,NNW,8.1,-,N/A,Snow,Light Snow,330,2013-02-27 23:15:00
5:35 PM,32.0,32.0,100,29.69,5.0,NNW,8.1,-,N/A,Snow,Light Snow,340,2013-02-27 23:35:00
5:55 PM,32.0,32.0,100,29.71,2.0,NNW,9.2,-,N/A,Snow,Light Snow,340,2013-02-27 23:55:00
6:15 PM,32.0,32.0,100,29.72,7.0,NNW,9.2,-,N/A,Snow,Light Snow,340,2013-02-28 00:15:00
6:35 PM,32.0,32.0,100,29.72,7.0,NNW,6.9,-,N/A,Snow,Light Snow,330,2013-02-28 00:35:00
6:55 PM,32.0,32.0,100,29.73,5.0,NNW,9.2,-,N/A,Snow,Light Snow,330,2013-02-28 00:55:00
7:15 PM,32.0,32.0,100,29.73,3.0,NNW,12.7,17.3,N/A,Snow,Light Snow,330,2013-02-28 01:15:00
7:35 PM,32.0,32.0,100,29.73,2.5,NNW,9.2,-,N/A,Snow,Light Snow,330,2013-02-28 01:35:00
8:15 PM,32.0,32.0,100,29.73,4.0,NNW,9.2,-,N/A,Snow,Light Snow,340,2013-02-28 02:15:00
8:35 PM,32.0,32.0,100,29.74,7.0,North,10.4,17.3,N/A,Snow,Light Snow,350,2013-02-28 02:35:00
8:55 PM,32.0,32.0,100,29.74,7.0,North,11.5,17.3,N/A,Snow,Light Snow,350,2013-02-28 02:55:00
9:15 PM,32.0,32.0,100,29.75,5.0,North,9.2,-,N/A,Snow,Light Snow,350,2013-02-28 03:15:00
9:35 PM,32.0,32.0,100,29.75,7.0,North,10.4,-,N/A,Snow,Light Snow,360,2013-02-28 03:35:00
9:55 PM,32.0,32.0,100,29.75,5.0,North,11.5,16.1,N/A,Snow,Light Snow,350,2013-02-28 03:55:00
10:35 PM,32.0,32.0,100,29.76,10.0,North,10.4,19.6,N/A,,Overcast,350,2013-02-28 04:35:00
10:55 PM,32.0,32.0,100,29.76,10.0,North,12.7,16.1,N/A,,Overcast,350,2013-02-28 04:55:00
11:15 PM,32.0,32.0,100,29.76,10.0,North,10.4,16.1,N/A,,Overcast,350,2013-02-28 05:15:00
11:35 PM,32.0,32.0,100,29.76,10.0,North,11.5,16.1,N/A,,Overcast,350,2013-02-28 05:35:00
11:55 PM,32.0,32.0,100,29.76,10.0,North,12.7,18.4,N/A,,Overcast,350,2013-02-28 05:55:00